EW9362 Weather Reports


Display with metric or nautical units.
time (UTC)temp
F
wind
direction
speed
MPH
gust
MPH
rain 1hr
in
rain 24hr
in
rain mn
in
humidity
%
barometer
mb
20260503053045 39 0 0.0 0.0 0.00 0.00 0.00 82 1019.3
20260503052531 39 0 0.0 1.0 0.00 0.00 0.00 81 1019.3
20260503052031 40 0 0.0 1.0 0.00 0.00 0.00 81 1019.3
20260503051545 40 0 0.0 1.0 0.00 0.00 0.00 80 1019.2
20260503051030 40 0 0.0 0.0 0.00 0.00 0.00 80 1019.3
20260503050530 40 0 0.0 0.0 0.00 0.00 0.00 81 1019.3
20260503050045 40 0 0.0 0.0 0.00 0.00 0.00 80 1019.5
20260503045528 40 0 0.0 0.0 0.00 0.00 0.00 81 1019.4
20260503045029 41 0 0.0 0.0 0.00 0.00 0.00 80 1019.5
20260503044542 41 0 0.0 0.0 0.00 0.00 0.00 79 1019.3
20260503044030 41 0 0.0 0.0 0.00 0.00 0.00 78 1019.4
20260503043530 41 0 0.0 0.0 0.00 0.00 0.00 78 1019.3
20260503043043 42 0 0.0 0.0 0.00 0.00 0.00 77 1019.3
20260503042528 42 0 0.0 0.0 0.00 0.00 0.00 78 1019.3
20260503042028 42 0 0.0 0.0 0.00 0.00 0.00 76 1019.3
20260503041553 43 0 0.0 0.0 0.00 0.00 0.00 76 1019.4
20260503041031 43 0 0.0 0.0 0.00 0.00 0.00 75 1019.3
20260503040530 43 0 0.0 0.0 0.00 0.00 0.00 75 1019.2
20260503040055 43 0 0.0 0.0 0.00 0.00 0.00 74 1019.4
20260503035528 43 0 0.0 0.0 0.00 0.00 0.00 71 1019.3
20260503035028 43 0 0.0 0.0 0.00 0.00 0.00 70 1019.2
20260503034559 44 0 0.0 0.0 0.00 0.00 0.00 71 1019.4
20260503034028 45 0 0.0 0.0 0.00 0.00 0.00 67 1019.3
20260503033528 45 0 0.0 1.0 0.00 0.00 0.00 66 1019.2
20260503033045 45 0 0.0 1.0 0.00 0.00 0.00 65 1019.2
20260503032528 45 0 0.0 0.0 0.00 0.00 0.00 66 1019.1
20260503032028 45 0 0.0 0.0 0.00 0.00 0.00 66 1019.1
20260503031544 46 0 0.0 0.0 0.00 0.00 0.00 66 1018.9
20260503031028 46 0 0.0 1.0 0.00 0.00 0.00 66 1019.1
20260503030527 47 0 0.0 1.0 0.00 0.00 0.00 63 1019.1
20260503030053 47 79 0.0 0.0 0.00 0.00 0.00 63 1018.9
20260503025527 47 0 0.0 1.0 0.00 0.00 0.00 63 1018.9
20260503025031 48 0 0.0 1.0 0.00 0.00 0.00 62 1019.0
20260503024546 48 0 0.0 2.0 0.00 0.00 0.00 64 1018.9
20260503024031 49 0 0.0 2.0 0.00 0.00 0.00 62 1018.8
20260503023528 49 32 0.0 3.0 0.00 0.00 0.00 61 1018.8
20260503023043 49 74 0.0 3.0 0.00 0.00 0.00 61 1018.7
20260503022528 49 50 0.0 3.0 0.00 0.00 0.00 63 1018.6
20260503022029 49 0 0.0 2.0 0.00 0.00 0.00 62 1018.7
20260503021543 50 0 0.0 2.0 0.00 0.00 0.00 62 1018.6
20260503021028 50 0 0.0 3.0 0.00 0.00 0.00 63 1018.4
20260503020530 50 73 0.0 3.0 0.00 0.00 0.00 62 1018.4
20260503020047 50 52 0.0 3.0 0.00 0.00 0.00 61 1018.3
20260503015527 50 0 0.0 3.0 0.00 0.00 0.00 63 1018.1
20260503015027 50 81 0.0 1.0 0.00 0.00 0.00 64 1018.1
20260503014549 50 75 0.0 2.0 0.00 0.00 0.00 63 1018.1
20260503014028 50 0 0.0 2.0 0.00 0.00 0.00 67 1018.0
20260503013528 49 29 0.0 2.0 0.00 0.00 0.00 66 1017.9
20260503013045 49 0 0.0 0.0 0.00 0.00 0.00 72 1017.9
20260503012531 49 0 0.0 0.0 0.00 0.00 0.00 71 1017.8
20260503012030 49 0 0.0 0.0 0.00 0.00 0.00 70 1017.8
20260503011541 49 0 0.0 0.0 0.00 0.00 0.00 70 1017.6
20260503011030 50 0 0.0 0.0 0.00 0.00 0.00 72 1017.6
20260503010529 50 0 0.0 0.0 0.00 0.00 0.00 72 1017.5
20260503010046 50 0 0.0 0.0 0.00 0.00 0.00 70 1017.5
20260503005528 50 0 0.0 0.0 0.00 0.00 0.00 73 1017.5
20260503005027 50 0 0.0 0.0 0.00 0.00 0.00 70 1017.5
20260503004546 50 0 0.0 0.0 0.00 0.00 0.00 69 1017.5
20260503004032 50 0 0.0 0.0 0.00 0.00 0.00 68 1017.4
20260503003527 50 0 0.0 0.0 0.00 0.00 0.00 68 1017.3
20260503003047 51 0 0.0 0.0 0.00 0.00 0.00 68 1017.3
20260503002527 51 0 0.0 0.0 0.00 0.00 0.00 68 1017.1
20260503002029 51 0 0.0 0.0 0.00 0.00 0.00 66 1017.2
20260503001601 51 0 0.0 0.0 0.00 0.00 0.00 65 1017.1
20260503001031 52 0 0.0 0.0 0.00 0.00 0.00 64 1017.0
20260503000528 52 0 0.0 0.0 0.00 0.00 0.00 61 1017.0
20260503000100 52 0 0.0 0.0 0.00 0.00 0.00 61 1017.0
20260502235527 52 0 0.0 0.0 0.00 0.00 0.00 61 1016.9
20260502235030 52 0 0.0 0.0 0.00 0.00 0.00 58 1016.8
20260502234545 53 0 0.0 0.0 0.00 0.00 0.00 56 1016.9
20260502234031 53 0 0.0 1.0 0.00 0.00 0.00 54 1016.9
20260502233530 53 0 0.0 1.0 0.00 0.00 0.00 58 1016.9
20260502233045 53 0 0.0 2.0 0.00 0.00 0.00 53 1016.9
20260502232527 53 0 0.0 3.0 0.00 0.00 0.00 52 1017.0
20260502232027 53 0 0.0 3.0 0.00 0.00 0.00 55 1017.1
20260502231555 53 349 0.0 2.0 0.00 0.00 0.00 52 1016.9
20260502231031 53 0 0.0 2.0 0.00 0.00 0.00 52 1016.9
20260502230528 53 0 0.0 4.0 0.00 0.00 0.00 52 1017.0
20260502230044 53 333 0.0 5.0 0.00 0.00 0.00 52 1016.8
20260502225527 54 342 2.0 5.0 0.00 0.00 0.00 50 1017.0
20260502225027 53 1 2.0 4.0 0.00 0.00 0.00 53 1017.0
20260502224543 53 34 1.0 4.0 0.00 0.00 0.00 54 1017.0
20260502224033 53 0 0.0 4.0 0.00 0.00 0.00 51 1017.1
20260502223530 53 0 1.0 4.0 0.00 0.00 0.00 52 1017.0
20260502223039 53 0 1.0 7.0 0.00 0.00 0.00 52 1017.0
20260502222527 53 41 2.0 7.0 0.00 0.00 0.00 52 1017.1
20260502222030 54 6 2.0 5.0 0.00 0.00 0.00 51 1017.0
20260502221546 54 359 2.0 5.0 0.00 0.00 0.00 52 1016.9
20260502221028 54 58 3.0 6.0 0.00 0.00 0.00 53 1016.8
20260502220528 55 38 2.0 6.0 0.00 0.00 0.00 52 1016.8
20260502220050 56 56 2.0 8.0 0.00 0.00 0.00 51 1016.8
20260502215527 55 9 1.0 8.0 0.00 0.00 0.00 51 1016.8
20260502215027 55 244 1.0 9.0 0.00 0.00 0.00 51 1016.8
20260502214544 54 65 3.0 9.0 0.00 0.00 0.00 54 1016.8
20260502214027 53 8 4.0 9.0 0.00 0.00 0.00 55 1016.7
20260502213531 53 12 1.0 4.0 0.00 0.00 0.00 58 1016.8
20260502213045 53 11 0.0 3.0 0.00 0.00 0.00 57 1016.8
20260502212531 53 0 0.0 3.0 0.00 0.00 0.00 59 1016.8
20260502212030 53 30 0.0 1.0 0.00 0.00 0.00 56 1016.9
20260502211549 53 0 0.0 1.0 0.00 0.00 0.00 61 1017.0
20260502211030 53 0 0.0 1.0 0.00 0.00 0.00 56 1017.0
20260502210531 53 0 0.0 1.0 0.00 0.00 0.00 58 1017.0
20260502210056 52 0 0.0 1.0 0.00 0.00 0.00 58 1017.1
20260502205534 52 0 0.0 0.0 0.00 0.00 0.00 62 1017.0
20260502205034 52 0 0.0 0.0 0.00 0.00 0.00 66 1017.0
20260502204546 52 0 0.0 0.0 0.00 0.00 0.00 66 1017.0
20260502204032 52 0 0.0 1.0 0.00 0.00 0.00 66 1017.1
20260502203532 52 0 0.0 1.0 0.00 0.00 0.00 60 1017.2
20260502203044 52 28 0.0 8.0 0.00 0.00 0.00 62 1017.2
20260502202530 52 68 2.0 8.0 0.00 0.00 0.00 59 1017.3
20260502202033 52 46 2.0 7.0 0.00 0.00 0.00 58 1017.3
20260502201542 53 352 3.0 7.0 0.00 0.00 0.00 57 1017.2
20260502201031 53 105 4.0 7.0 0.00 0.00 0.00 56 1017.2
20260502200529 53 30 2.0 6.0 0.00 0.00 0.00 55 1017.2
20260502200042 53 31 1.0 6.0 0.00 0.00 0.00 55 1017.3
20260502195528 53 0 1.0 6.0 0.00 0.00 0.00 57 1017.2
20260502195028 53 337 2.0 6.0 0.00 0.00 0.00 57 1017.3
20260502194546 53 39 3.0 6.0 0.00 0.00 0.00 55 1017.3
20260502194033 54 339 0.0 5.0 0.00 0.00 0.00 58 1017.2
20260502193531 53 57 3.0 5.0 0.00 0.00 0.00 56 1017.3
20260502193046 53 6 2.0 7.0 0.00 0.00 0.00 56 1017.3
20260502192534 53 89 2.0 7.0 0.00 0.00 0.00 56 1017.3
20260502192031 54 31 1.0 5.0 0.00 0.00 0.00 56 1017.4
20260502191543 54 345 2.0 5.0 0.00 0.00 0.00 57 1017.4
20260502191033 54 91 1.0 6.0 0.00 0.00 0.00 56 1017.4
20260502190532 54 18 3.0 6.0 0.00 0.00 0.00 56 1017.5
20260502190054 54 70 2.0 6.0 0.00 0.00 0.00 56 1017.5
20260502185529 57 50 0.0 7.0 0.00 0.00 0.00 54 1017.5
20260502185029 56 106 0.0 7.0 0.00 0.00 0.00 52 1017.5
20260502184550 55 343 3.0 9.0 0.00 0.00 0.00 55 1017.4
20260502184029 54 342 3.0 9.0 0.00 0.00 0.00 55 1017.5
20260502183529 55 2 2.0 8.0 0.00 0.00 0.00 51 1017.6
20260502183049 56 4 1.0 8.0 0.00 0.00 0.00 54 1017.6
20260502182528 56 134 1.0 8.0 0.00 0.00 0.00 54 1017.7
20260502182031 56 5 0.0 8.0 0.00 0.00 0.00 55 1017.6
20260502181546 55 340 2.0 8.0 0.00 0.00 0.00 52 1017.7
20260502181028 56 95 0.0 6.0 0.00 0.00 0.00 54 1017.8
20260502180532 55 27 1.0 5.0 0.00 0.00 0.00 58 1017.8
20260502180109 56 323 0.0 7.0 0.00 0.00 0.00 57 1017.8
20260502164032 52 359 2.0 8.0 0.00 0.00 0.00 61 1018.2
20260502163528 52 323 2.0 8.0 0.00 0.00 0.00 60 1018.2
20260502163045 52 44 4.0 8.0 0.00 0.00 0.00 58 1018.3
20260502162533 53 352 2.0 6.0 0.00 0.00 0.00 59 1018.2
20260502162031 52 349 2.0 5.0 0.00 0.00 0.00 57 1018.2
20260502161545 53 0 1.0 4.0 0.00 0.00 0.00 57 1018.3
20260502161033 53 0 0.0 4.0 0.00 0.00 0.00 57 1018.3
20260502160531 52 25 1.0 6.0 0.00 0.00 0.00 59 1018.3
20260502152031 50 13 2.0 4.0 0.00 0.00 0.00 62 1018.2
20260502151556 51 14 1.0 2.0 0.00 0.00 0.00 63 1018.3
20260502151031 51 82 0.0 5.0 0.00 0.00 0.00 63 1018.3
20260502150531 50 0 1.0 5.0 0.00 0.00 0.00 64 1018.3
20260502130531 45 46 0.0 2.0 0.00 0.00 0.00 72 1018.0
20260502123531 44 129 0.0 4.0 0.00 0.00 0.00 74 1017.7
20260502123046 44 35 0.0 3.0 0.00 0.00 0.00 74 1017.7
20260502122530 44 77 0.0 4.0 0.00 0.00 0.00 76 1017.7
20260502122031 44 0 0.0 7.0 0.00 0.00 0.00 76 1017.6
20260502121555 44 150 0.0 7.0 0.00 0.00 0.00 76 1017.5
20260502121035 44 177 0.0 4.0 0.00 0.00 0.00 77 1017.5
20260502120532 44 114 0.0 4.0 0.00 0.00 0.00 76 1017.3
20260502115534 43 108 0.0 4.0 0.00 0.00 0.00 78 1017.4
20260502115031 42 117 1.0 4.0 0.00 0.00 0.00 79 1017.2
20260502114547 42 142 1.0 3.0 0.00 0.00 0.00 79 1017.1
20260502114031 42 140 0.0 4.0 0.00 0.00 0.00 79 1017.2
20260502113533 42 120 0.0 4.0 0.00 0.00 0.00 78 1017.2
20260502113046 42 139 1.0 5.0 0.00 0.00 0.00 78 1017.4
20260502112531 42 174 0.0 5.0 0.00 0.00 0.00 79 1017.4
20260502112031 42 133 0.0 3.0 0.00 0.00 0.00 79 1017.2
20260502111554 42 0 0.0 3.0 0.00 0.00 0.00 78 1017.2
20260502111032 42 0 0.0 2.0 0.00 0.00 0.00 79 1017.2
20260502110531 42 0 0.0 2.0 0.00 0.00 0.00 78 1017.1
20260502110049 42 163 0.0 2.0 0.00 0.00 0.00 78 1016.7
20260502105533 42 132 0.0 2.0 0.00 0.00 0.00 77 1016.7
20260502105031 42 143 0.0 1.0 0.00 0.00 0.00 77 1017.0
20260502104545 42 0 0.0 1.0 0.00 0.00 0.00 77 1017.1
20260502104031 42 0 0.0 3.0 0.00 0.00 0.00 78 1017.0
20260502103531 42 0 0.0 3.0 0.00 0.00 0.00 78 1016.8
20260502103050 41 0 0.0 1.0 0.00 0.00 0.00 79 1016.8
20260502102531 42 0 0.0 1.0 0.00 0.00 0.00 79 1016.8
20260502102030 42 0 0.0 0.0 0.00 0.00 0.00 79 1016.7
20260502101605 42 0 0.0 0.0 0.00 0.00 0.00 79 1016.8
20260502101030 42 0 0.0 1.0 0.00 0.00 0.00 79 1016.8
20260502100531 42 0 0.0 1.0 0.00 0.00 0.00 79 1016.8
20260502091030 42 0 0.0 1.0 0.00 0.00 0.00 78 1016.8
20260502090532 43 0 0.0 1.0 0.00 0.00 0.00 78 1016.8
20260502071031 43 0 0.0 1.0 0.00 0.00 0.00 77 1016.8
20260502070533 43 0 0.0 1.0 0.00 0.00 0.00 77 1016.6
20260502070046 44 0 0.0 1.0 0.00 0.00 0.00 76 1016.6
20260502065531 44 0 0.0 1.0 0.00 0.00 0.00 76 1016.7
20260502065029 43 0 0.0 1.0 0.00 0.00 0.00 77 1016.8
20260502064545 43 0 0.0 1.0 0.00 0.00 0.00 77 1016.7
20260502064029 43 0 0.0 0.0 0.00 0.00 0.00 78 1016.8
20260502063529 42 0 0.0 0.0 0.00 0.00 0.00 80 1016.9
20260502063042 42 0 0.0 0.0 0.00 0.00 0.00 81 1016.9
20260502062531 42 0 0.0 0.0 0.00 0.00 0.00 83 1017.1
20260502062031 41 0 0.0 0.0 0.00 0.00 0.00 84 1017.0
20260502061548 41 0 0.0 0.0 0.00 0.00 0.00 86 1017.0
20260502061030 41 0 0.0 0.0 0.00 0.00 0.00 85 1016.9
20260502060528 41 0 0.0 0.0 0.00 0.00 0.00 84 1016.9
20260502060047 42 0 0.0 0.0 0.00 0.00 0.00 85 1017.0
20260502055531 41 0 0.0 0.0 0.00 0.00 0.00 85 1017.0
20260502055031 42 0 0.0 0.0 0.00 0.00 0.00 86 1017.1
20260502054544 42 0 0.0 0.0 0.00 0.00 0.00 86 1017.1
20260502054029 41 0 0.0 0.0 0.00 0.00 0.00 86 1017.3
20260502053530 42 0 0.0 0.0 0.00 0.00 0.00 86 1017.4